Flag for Canada Weather past 2 weeks in Steinbach, Manitoba, Canada

Now
41 °F

Quite cool.


Feels Like: 35 °F
Forecast: 38 / 52 °F
Wind: 9 mph from North

Location: Winnipeg The Forks

Current Time: May 29, 2015 at 9:25:51 AM

Latest Report: May 29, 2015 at 9:00 AM


Visibility: N/A

Pressure: 30.19 "Hg

Humidity: 74%

Dew point: 34 °F

Location of SteinbachLocation

Historic Weather in Steinbach — Graph

°F

Steinbach temperature yesterday

Maximum temperature yesterday: 66 °F (at 3:00 PM)
Minimum temperature yesterday: 53 °F (at 1:00 AM)
Average temperature yesterday: 57 °F

Past Weeks' High & Low Weather Summary

 TemperatureHumidityPressure
High85 °F (May 26, 4:00 PM)100% (May 14, 12:00 PM)30.44 "Hg (May 14, 12:00 PM)
Low31 °F (May 18, 9:00 AM)14% (May 22, 5:00 PM)29.70 "Hg (May 25, 6:00 PM)
Average57 °F56%30.00 "Hg
* Reported May 14 8:00 AM — May 29 8:00 AM, Steinbach, Weather by CustomWeather, © 2015

Note: Actual official high and low records may vary slightly from our data, if they occured in-between our weather recording intervals... More about our weather records

Advertising

Steinbach weather history for previous 24 hours

 ConditionsComfort  
Time TempWeatherWind HumidityBarometerVisibility
8:00 AM
Fri, May 29
40 °FQuite cool.12 mph76%30.17 "HgN/A
7:00 AM40 °FQuite cool.12 mph78%30.15 "HgN/A
6:00 AM41 °FQuite cool.12 mph79%30.11 "HgN/A
5:00 AM43 °FQuite cool.9 mph80%30.08 "HgN/A
4:00 AM43 °FQuite cool.9 mph83%30.05 "HgN/A
3:00 AM44 °FQuite cool.12 mph84%30.03 "HgN/A
2:00 AM47 °FCool.9 mph84%30.01 "HgN/A
1:00 AM49 °FCool.12 mph81%29.99 "HgN/A
12:00 AM51 °FCool.12 mph78%29.97 "HgN/A
11:00 PM
Thu, May 28
54 °FCool.12 mph84%29.93 "HgN/A
10:00 PM57 °FCool.5 mph91%29.90 "HgN/A
9:00 PM58 °FCool.8 mph89%29.87 "HgN/A
8:00 PM59 °FCool.6 mph89%29.85 "HgN/A
7:00 PM59 °FCool.6 mph91%29.83 "HgN/A
6:00 PM61 °FCool.6 mph87%29.83 "HgN/A
5:00 PM65 °FMild.6 mph82%29.82 "HgN/A
4:00 PM66 °FMild.2 mph78%29.83 "HgN/A
3:00 PM66 °FMild.2 mph79%29.84 "HgN/A
2:00 PM61 °FCool.3 mph89%29.86 "HgN/A
1:00 PM60 °FCool.1 mph91%29.88 "HgN/A
12:00 PM58 °FCool.1 mph91%29.88 "HgN/A
11:00 AM57 °FCool.1 mph85%29.90 "HgN/A
10:00 AM56 °FCool.1 mph92%29.92 "HgN/A
9:00 AM55 °FCool.1 mph92%29.94 "HgN/A
Weather by CustomWeather, © 2015

See weather overviewHow to use our weather pages